Regional Weather Roundup
Issued by NWS

Home | Current Version | Previous Version | Text Only | Print | Product List | Glossary On
Versions: 1 2 3 4 5 6 7 8 9 10 11 12 13 14 15 16 17 18 19 20 21 22 23 24 25 26 27 28 29 30 31 32 33 34 35 36 37 38 39 40 41 42 43 44 45 46 47 48 49 50
000
ASUS43 KTOP 060759
RWRKS

WEATHER ROUNDUP FOR KANSAS
NATIONAL WEATHER SERVICE GOODLAND KS
300 AM CDT WED MAY 06 2015

NOTE:  "FAIR" INDICATES FEW OR NO CLOUDS BELOW 12,000 FEET WITH NO
SIGNIFICANT WEATHER AND/OR OBSTRUCTIONS TO VISIBILITY.

KSZ001>006-013>018-027>032-041>047-060900-
NORTHWEST KANSAS

CITY           SKY/WX    TMP DP  RH WIND       PRES   REMARKS
GOODLAND       CLOUDY    52  51  97 SE9       29.74F
HAYS           CLOUDY    61  55  82 SE15G23   29.78F
HILL CITY      CLOUDY    61  59  93 SE12      29.77F
RUSSELL        CLOUDY    62  60  93 SE16      29.78F
$$

KSZ061>065-074>080-084>089-060900-
SOUTHWEST KANSAS

CITY           SKY/WX    TMP DP  RH WIND       PRES   REMARKS
DODGE CITY     MOCLDY    56  54  93 S12       29.79R
ELKHART          N/A     50  45  83 SE12        N/A
GARDEN CITY    CLEAR     50  49  96 SE10      29.76F
GREAT BEND     CLOUDY    61  57  88 SE18      29.78F
LIBERAL        MOCLDY    54  48  82 SE10      29.78F
$$

KSZ066>073-081>083-090>101-060900-
SOUTHEAST KANSAS

CITY           SKY/WX    TMP DP  RH WIND       PRES   REMARKS
CHANUTE        CLOUDY    66  59  78 SE13      29.91F
COFFEYVILLE    CLOUDY    67  58  72 SE13      29.92F
HUTCHINSON     RAIN      63  60  90 SE15      29.82F
MEDICINE LODGE   N/A     62  61  96 S10       29.78F
NEWTON         CLOUDY    59  55  88 S8        29.88S
PARSONS        CLOUDY    67  59  75 SE9       29.93F
WICHITA INTL   HVY RAIN  61  59  93 SE12      29.85S FOG
WICHITA JABRA  RAIN      61  61 100 S9          N/A
WICHITA MCCONL LGT RAIN  61  60  97 SE7       29.86S FOG
WINFIELD       RAIN      60  60 100 S13       29.87S
$$

KSZ007>012-019>026-033>040-048>060-102>105-060900-
NORTHEAST KANSAS

CITY           SKY/WX    TMP DP  RH WIND       PRES   REMARKS
CONCORDIA      CLOUDY    63  59  87 SE18G28   29.84F
EMPORIA        LGT RAIN  63  61  93 SE18G31   29.88F
LAWRENCE       CLOUDY    65  60  84 SE8       29.94F
MANHATTAN      RAIN      64  62  93 SE12      29.88F FOG
OLATHE IND     CLOUDY    67  56  67 SE15      29.96F
OLATHE EXE     CLOUDY    66  57  72 SE10      29.95F
SALINA         RAIN      63  59  87 SE18      29.83F
TOPEKA BILLARD LGT RAIN  65  62  90 SE8       29.93F
TOPEKA FORBES  LGT RAIN  66  62  87 SE14      29.92F
$$


USA.gov is the U.S. government's official web portal to all federal, state and local government web resources and services.